Starlink 30114

operational
NORAD ID: 56826 Int'l Des: 2023-079 Owner: SPXS Country: US Constellation: starlink
LEOCIRCULAR

About Starlink 30114

Description loading...

Live Position

Loading 3D Globe...

Upcoming Passes

Altitude History

Altitude vs Time

uPlot chart will show altitude changes over time

Two-Line Element Set

1 56826U 23079D 25306.06817815 .00000186 00000-0 28837-4 0 9997
2 56826 43.0044 80.9135 0002166 275.2971 84.7624 15.02534135134006
Epoch: Nov 2, 2025 • Age: 18 hours

Current Status

Altitude 561.6 km
Velocity 7.59 km/s
Sub-Earth Point 34.75°N, 150.73°E
Launch Date Jun 4, 2023
Age 2.4 years
Type internet

Technical Details

Classification Payload
Mass 730.00 kg
Dry Mass 700.00 kg
Total Mass 730.00 kg
Length 0.30 m
Diameter 4.10 m
Span 29.00 m
Shape Box + pan
Manufacturer SPXS
Bus Type Starlink V2M
Phase Status In Orbit
Owner/State SPXS/US

Large Constellations

Loading constellations...